Location: Newark
(50.4348°N, 30.5552°E)
Time: 00:27:19
(UTC+00:00)

Tiros 1 despin weight - Pass Details

Date: 31 January 2020
Orbit: 594 x 642 km, 48.2° (Epoch: 24 February)

Event Time Altitude Azimuth Distance (km) Brightness Sun altitude
Rises 07:58:21 0° 237° (WSW) 2,841 ? 16.1°
Reaches altitude 10° 08:00:42 10° 231° (SW) 1,947 ? 16.3°
Maximum altitude 08:04:57 44° 159° (SSE) 847 ? 16.6°
Drops below altitude 10° 08:09:16 10° 88° (E) 1,981 ? 17.0°
Sets 08:11:40 0° 82° (E) 2,897 ? 17.2°
